LNI963 WIMM-WAHI

Flight info

Callsign LNI963
Flight time N/A
Altitude 35000
Route OMBES1B OMBES T5 HLM W17 CLP CLP2H
Aircraft B739/M-SDE2E3FGHIRWXY/LB1

Departure

Time N/A
Airport Kualanamu International Airport (WIMM)

Arrival

Time 2026-04-26 06:49
Airport Yogyakarta International Airport (WAHI)
Time Latitude Longitude Altitude Speed Heading
2026-04-26 05:37 -2.67120 104.80544 34875 ft 469 kts 140°
2026-04-26 05:37 -2.69657 104.82601 34874 ft 469 kts 140°
2026-04-26 05:37 -2.74722 104.86708 34876 ft 469 kts 140°
2026-04-26 05:38 -2.78114 104.89459 34881 ft 469 kts 140°
2026-04-26 05:38 -2.82541 104.93050 34873 ft 469 kts 140°
2026-04-26 05:39 -2.87607 104.97159 34875 ft 469 kts 140°
2026-04-26 05:39 -2.92669 105.01266 34867 ft 469 kts 140°
2026-04-26 05:40 -2.97739 105.05380 34861 ft 469 kts 140°
2026-04-26 05:40 -3.02797 105.09485 34861 ft 469 kts 140°
2026-04-26 05:41 -3.07866 105.13599 34859 ft 469 kts 140°
2026-04-26 05:41 -3.12930 105.17709 34859 ft 469 kts 140°
2026-04-26 05:42 -3.18002 105.21828 34858 ft 469 kts 140°
2026-04-26 05:42 -3.23071 105.25944 34857 ft 469 kts 140°
2026-04-26 05:43 -3.28131 105.30079 34857 ft 469 kts 139°
2026-04-26 05:43 -3.33137 105.34270 34855 ft 469 kts 139°
2026-04-26 05:44 -3.38142 105.38473 34858 ft 469 kts 139°
2026-04-26 05:44 -3.43152 105.42666 34859 ft 469 kts 139°
2026-04-26 05:45 -3.48163 105.46855 34854 ft 469 kts 139°
2026-04-26 05:45 -3.53166 105.51039 34856 ft 469 kts 139°
2026-04-26 05:46 -3.58169 105.55222 34859 ft 468 kts 139°
2026-04-26 05:46 -3.63170 105.59396 34857 ft 468 kts 139°
2026-04-26 05:47 -3.68169 105.63565 34857 ft 468 kts 139°
2026-04-26 05:47 -3.73160 105.67731 34856 ft 468 kts 139°
2026-04-26 05:48 -3.78159 105.71905 34858 ft 468 kts 139°
2026-04-26 05:48 -3.83155 105.76078 34857 ft 468 kts 139°
2026-04-26 05:49 -3.90653 105.82341 34859 ft 468 kts 139°
2026-04-26 05:50 -3.95652 105.86517 34860 ft 469 kts 139°
2026-04-26 05:50 -4.00665 105.90706 34857 ft 469 kts 139°
2026-04-26 05:51 -4.05670 105.94889 34859 ft 469 kts 139°
2026-04-26 05:51 -4.10682 105.99079 34859 ft 469 kts 139°
2026-04-26 05:52 -4.15695 106.03270 34863 ft 469 kts 139°
2026-04-26 05:52 -4.20703 106.07457 34859 ft 469 kts 139°
2026-04-26 05:53 -4.25717 106.11651 34861 ft 469 kts 139°
2026-04-26 05:53 -4.30728 106.15842 34863 ft 469 kts 139°
2026-04-26 05:54 -4.35706 106.20007 34864 ft 469 kts 139°
2026-04-26 05:54 -4.40720 106.24202 34867 ft 469 kts 139°
2026-04-26 05:55 -4.45728 106.28394 34866 ft 469 kts 139°
2026-04-26 05:55 -4.50737 106.32587 34865 ft 469 kts 139°
2026-04-26 05:56 -4.55750 106.36784 34863 ft 469 kts 139°
2026-04-26 05:56 -4.60759 106.40979 34865 ft 469 kts 139°
2026-04-26 05:57 -4.65771 106.45177 34866 ft 469 kts 139°
2026-04-26 05:57 -4.70779 106.49373 34866 ft 469 kts 139°
2026-04-26 05:58 -4.75788 106.53570 34862 ft 469 kts 139°
2026-04-26 05:58 -4.80790 106.57763 34864 ft 469 kts 139°
2026-04-26 05:59 -4.86115 106.61503 34864 ft 469 kts 153°
2026-04-26 05:59 -4.92290 106.63583 34868 ft 470 kts 168°
2026-04-26 06:00 -4.98733 106.64745 34862 ft 470 kts 169°
2026-04-26 06:00 -5.05179 106.65873 34861 ft 470 kts 169°
2026-04-26 06:01 -5.11625 106.67048 34862 ft 471 kts 169°
2026-04-26 06:01 -5.18065 106.68249 34861 ft 471 kts 168°
2026-04-26 06:02 -5.24499 106.69455 34859 ft 471 kts 168°
2026-04-26 06:02 -5.30944 106.70662 34862 ft 471 kts 168°
2026-04-26 06:03 -5.37382 106.71867 34857 ft 471 kts 168°
2026-04-26 06:03 -5.43784 106.73065 34857 ft 471 kts 168°
2026-04-26 06:04 -5.50229 106.74271 34855 ft 471 kts 168°
2026-04-26 06:04 -5.56676 106.75478 34857 ft 471 kts 168°
2026-04-26 06:05 -5.63116 106.76684 34851 ft 471 kts 168°
2026-04-26 06:05 -5.69560 106.77891 34852 ft 471 kts 168°
2026-04-26 06:06 -5.76006 106.79098 34852 ft 471 kts 168°
2026-04-26 06:06 -5.82450 106.80306 34844 ft 471 kts 168°
2026-04-26 06:07 -5.88888 106.81512 34842 ft 471 kts 168°
2026-04-26 06:07 -5.95328 106.82720 34837 ft 471 kts 168°
2026-04-26 06:08 -6.01774 106.83928 34837 ft 471 kts 168°
2026-04-26 06:08 -6.08218 106.85137 34837 ft 471 kts 168°
2026-04-26 06:09 -6.14668 106.86347 34832 ft 471 kts 168°
2026-04-26 06:09 -6.21116 106.87558 34829 ft 472 kts 168°
2026-04-26 06:09 -6.24268 106.88425 34807 ft 470 kts 154°
2026-04-26 06:10 -6.27021 106.90149 34842 ft 467 kts 139°
2026-04-26 06:10 -6.29245 106.92513 34820 ft 465 kts 123°
2026-04-26 06:10 -6.30871 106.95310 34848 ft 464 kts 117°
2026-04-26 06:11 -6.33819 107.01088 34838 ft 465 kts 116°
2026-04-26 06:11 -6.36769 107.06898 34847 ft 467 kts 117°
2026-04-26 06:12 -6.39782 107.12697 34844 ft 468 kts 117°
2026-04-26 06:12 -6.42307 107.17514 34856 ft 469 kts 117°
2026-04-26 06:13 -6.45355 107.23323 34862 ft 470 kts 117°
2026-04-26 06:13 -6.48400 107.29134 34858 ft 470 kts 117°
2026-04-26 06:14 -6.51448 107.34958 34857 ft 470 kts 117°
2026-04-26 06:14 -6.54494 107.40781 34863 ft 470 kts 117°
2026-04-26 06:15 -6.57634 107.46547 34859 ft 470 kts 122°
2026-04-26 06:15 -6.61307 107.51989 34861 ft 470 kts 124°
2026-04-26 06:16 -6.65078 107.57358 34872 ft 470 kts 124°
2026-04-26 06:16 -6.68820 107.62757 34876 ft 470 kts 124°
2026-04-26 06:17 -6.72530 107.68176 34878 ft 470 kts 124°
2026-04-26 06:17 -6.76225 107.73599 34873 ft 470 kts 124°
2026-04-26 06:18 -6.79920 107.79024 34880 ft 470 kts 124°
2026-04-26 06:18 -6.83613 107.84445 34877 ft 470 kts 124°
2026-04-26 06:19 -6.87307 107.89868 34886 ft 470 kts 124°
2026-04-26 06:19 -6.89655 107.93315 34879 ft 470 kts 124°
2026-04-26 06:20 -6.93351 107.98743 34883 ft 470 kts 124°
2026-04-26 06:20 -6.97048 108.04175 34888 ft 471 kts 124°
2026-04-26 06:21 -7.00753 108.09620 34885 ft 472 kts 124°
2026-04-26 06:21 -7.04463 108.15073 34880 ft 473 kts 124°
2026-04-26 06:22 -7.08177 108.20536 34881 ft 473 kts 124°
2026-04-26 06:22 -7.11895 108.26005 34870 ft 473 kts 124°
2026-04-26 06:23 -7.15610 108.31472 34879 ft 473 kts 124°
2026-04-26 06:23 -7.19328 108.36944 34497 ft 479 kts 124°
2026-04-26 06:23 -7.21210 108.39717 33743 ft 477 kts 123°
2026-04-26 06:24 -7.22429 108.41514 33150 ft 472 kts 123°
2026-04-26 06:24 -7.24275 108.44232 32263 ft 466 kts 123°
2026-04-26 06:24 -7.26093 108.46908 31391 ft 461 kts 123°
2026-04-26 06:24 -7.27895 108.49561 30485 ft 457 kts 123°
2026-04-26 06:25 -7.29681 108.52192 29498 ft 454 kts 122°
2026-04-26 06:25 -7.31458 108.54811 28528 ft 450 kts 123°
2026-04-26 06:25 -7.33199 108.57378 27909 ft 440 kts 123°
2026-04-26 06:25 -7.34923 108.59927 27243 ft 442 kts 122°
2026-04-26 06:26 -7.36669 108.62519 26604 ft 453 kts 123°
2026-04-26 06:26 -7.38452 108.65159 25917 ft 453 kts 123°
2026-04-26 06:26 -7.40201 108.67741 25245 ft 440 kts 123°
2026-04-26 06:26 -7.41908 108.70257 24597 ft 429 kts 123°
2026-04-26 06:27 -7.43574 108.72714 23939 ft 419 kts 123°
2026-04-26 06:27 -7.45200 108.75112 23296 ft 410 kts 123°
2026-04-26 06:27 -7.46793 108.77461 22600 ft 402 kts 123°
2026-04-26 06:27 -7.48358 108.79767 21979 ft 397 kts 123°
2026-04-26 06:28 -7.49921 108.82073 21384 ft 402 kts 123°
2026-04-26 06:28 -7.51525 108.84439 20783 ft 414 kts 123°
2026-04-26 06:28 -7.53139 108.86823 20146 ft 408 kts 123°
2026-04-26 06:28 -7.54717 108.89150 19538 ft 396 kts 123°
2026-04-26 06:29 -7.56255 108.91413 18950 ft 386 kts 123°
2026-04-26 06:29 -7.57747 108.93616 18366 ft 377 kts 123°
2026-04-26 06:29 -7.59211 108.95779 17746 ft 371 kts 123°
2026-04-26 06:29 -7.60657 108.97916 17139 ft 367 kts 123°
2026-04-26 06:30 -7.62108 109.00060 16590 ft 376 kts 123°
2026-04-26 06:30 -7.63575 109.02293 15999 ft 386 kts 119°
2026-04-26 06:30 -7.64724 109.04710 15440 ft 376 kts 110°
2026-04-26 06:30 -7.65432 109.07193 14951 ft 362 kts 103°
2026-04-26 06:31 -7.65998 109.09601 14432 ft 354 kts 103°
2026-04-26 06:31 -7.66555 109.11999 13910 ft 349 kts 103°
2026-04-26 06:31 -7.67111 109.14382 13336 ft 352 kts 103°
2026-04-26 06:31 -7.67685 109.16825 12772 ft 364 kts 103°
2026-04-26 06:32 -7.68275 109.19325 12174 ft 364 kts 103°
2026-04-26 06:32 -7.68855 109.21763 11604 ft 353 kts 103°
2026-04-26 06:32 -7.69417 109.24122 11189 ft 340 kts 103°
2026-04-26 06:32 -7.69964 109.26413 10843 ft 329 kts 103°
2026-04-26 06:33 -7.70487 109.28605 10700 ft 317 kts 103°
2026-04-26 06:33 -7.71001 109.30755 10578 ft 317 kts 103°
2026-04-26 06:33 -7.71523 109.32941 10458 ft 321 kts 103°
2026-04-26 06:33 -7.72033 109.35076 10300 ft 305 kts 103°
2026-04-26 06:34 -7.72515 109.37089 10161 ft 288 kts 103°
2026-04-26 06:34 -7.72970 109.38993 10035 ft 271 kts 103°
2026-04-26 06:34 -7.73402 109.40804 9801 ft 261 kts 103°
2026-04-26 06:34 -7.73824 109.42569 9503 ft 257 kts 103°
2026-04-26 06:35 -7.74241 109.44317 9207 ft 257 kts 103°
2026-04-26 06:35 -7.74663 109.46090 8923 ft 265 kts 103°
2026-04-26 06:35 -7.75107 109.47946 8617 ft 279 kts 103°
2026-04-26 06:35 -7.75561 109.49862 8229 ft 281 kts 102°
2026-04-26 06:36 -7.76014 109.51777 7917 ft 281 kts 102°
2026-04-26 06:36 -7.76471 109.53696 7588 ft 282 kts 102°
2026-04-26 06:36 -7.76925 109.55625 7211 ft 284 kts 102°
2026-04-26 06:36 -7.77390 109.57561 6905 ft 285 kts 103°
2026-04-26 06:37 -7.77862 109.59513 6552 ft 287 kts 102°
2026-04-26 06:37 -7.78337 109.61478 6190 ft 290 kts 102°
2026-04-26 06:37 -7.78811 109.63467 5810 ft 292 kts 102°
2026-04-26 06:37 -7.79280 109.65454 5449 ft 290 kts 102°
2026-04-26 06:38 -7.79747 109.67428 5100 ft 289 kts 103°
2026-04-26 06:38 -7.80213 109.69392 4765 ft 287 kts 103°
2026-04-26 06:38 -7.80678 109.71346 4415 ft 286 kts 103°
2026-04-26 06:38 -7.81143 109.73298 4061 ft 286 kts 103°
2026-04-26 06:39 -7.81605 109.75241 3720 ft 284 kts 103°
2026-04-26 06:39 -7.82063 109.77166 3371 ft 279 kts 103°
2026-04-26 06:39 -7.82508 109.79038 3037 ft 270 kts 103°
2026-04-26 06:39 -7.82939 109.80851 2709 ft 263 kts 103°
2026-04-26 06:40 -7.83358 109.82617 2417 ft 254 kts 104°
2026-04-26 06:40 -7.83757 109.84297 2301 ft 239 kts 104°
2026-04-26 06:40 -7.84134 109.85883 2180 ft 226 kts 104°
2026-04-26 06:40 -7.84491 109.87387 2071 ft 217 kts 104°
2026-04-26 06:41 -7.84844 109.88872 2005 ft 216 kts 104°
2026-04-26 06:41 -7.85186 109.90303 1858 ft 206 kts 104°
2026-04-26 06:41 -7.85507 109.91686 1655 ft 200 kts 104°
2026-04-26 06:41 -7.85843 109.93008 1531 ft 189 kts 109°
2026-04-26 06:42 -7.86256 109.94215 1481 ft 178 kts 112°
2026-04-26 06:42 -7.86667 109.95358 1520 ft 166 kts 112°
2026-04-26 06:42 -7.87123 109.96403 1498 ft 159 kts 118°
2026-04-26 06:42 -7.87526 109.97410 1481 ft 154 kts 112°
2026-04-26 06:43 -7.87885 109.98429 1487 ft 154 kts 111°
2026-04-26 06:43 -7.88336 109.99375 1470 ft 147 kts 139°
2026-04-26 06:43 -7.89237 109.99710 1480 ft 141 kts 189°
2026-04-26 06:43 -7.90038 109.99204 1497 ft 143 kts 236°
2026-04-26 06:44 -7.90240 109.98227 1507 ft 144 kts 264°
2026-04-26 06:44 -7.90174 109.97223 1489 ft 145 kts 289°
2026-04-26 06:44 -7.89787 109.96289 1506 ft 145 kts 288°
2026-04-26 06:44 -7.89416 109.95333 1502 ft 147 kts 288°
2026-04-26 06:45 -7.89039 109.94372 1500 ft 149 kts 289°
2026-04-26 06:45 -7.88616 109.93416 1467 ft 151 kts 303°
2026-04-26 06:45 -7.87729 109.92924 1506 ft 154 kts 355°
2026-04-26 06:45 -7.86721 109.93278 1487 ft 160 kts 44°
2026-04-26 06:46 -7.86303 109.94258 1525 ft 154 kts 97°
2026-04-26 06:46 -7.86685 109.95239 1545 ft 148 kts 120°
2026-04-26 06:46 -7.87096 109.96247 1507 ft 158 kts 113°
2026-04-26 06:46 -7.87462 109.97272 1405 ft 155 kts 113°
2026-04-26 06:47 -7.87850 109.98283 1241 ft 155 kts 111°
2026-04-26 06:47 -7.88202 109.99291 1069 ft 151 kts 113°
2026-04-26 06:47 -7.88531 110.00297 869 ft 150 kts 111°
2026-04-26 06:47 -7.88942 110.01272 698 ft 155 kts 113°
2026-04-26 06:48 -7.89272 110.02288 478 ft 148 kts 114°
2026-04-26 06:48 -7.89633 110.03266 261 ft 153 kts 110°
2026-04-26 06:48 -7.89979 110.04264 89 ft 148 kts 113°
2026-04-26 06:48 -7.90347 110.05220 38 ft 134 kts 111°
2026-04-26 06:49 -7.90619 110.05956 41 ft 89 kts 110°
2026-04-26 06:49 -7.90661 110.06224 41 ft 15 kts 74°
2026-04-26 06:49 -7.90645 110.06326 42 ft 14 kts 83°
2026-04-26 06:49 -7.90629 110.06424 40 ft 14 kts 82°
2026-04-26 06:50 -7.90529 110.06495 37 ft 25 kts 20°
2026-04-26 06:50 -7.90440 110.06461 37 ft 15 kts 291°
2026-04-26 06:50 -7.90404 110.06365 37 ft 14 kts 292°
2026-04-26 06:50 -7.90370 110.06273 37 ft 14 kts 292°
2026-04-26 06:51 -7.90337 110.06185 37 ft 13 kts 290°
2026-04-26 06:51 -7.90274 110.06018 37 ft 12 kts 290°
2026-04-26 06:51 -7.90244 110.05938 37 ft 12 kts 290°
2026-04-26 06:52 -7.90215 110.05859 37 ft 12 kts 290°
2026-04-26 06:52 -7.90174 110.05819 37 ft 6 kts 11°
2026-04-26 06:52 -7.90134 110.05832 36 ft 5 kts 20°
2026-04-26 06:52 -7.90121 110.05837 37 ft 0 kts 20°